Location: Arroyo de la Pradovera
(40.6500°N, 4.0500°W)
Time: 18:02:18
(UTC+00:00)

Daily predictions for brighter satellites

Satellite Brightness Start Highest point End
(mag) Time Altitude Azimuth Time Altitude Azimuth Time Altitude Azimuth
Geosat 4.3 20:15:56 10° SE 20:20:49 56° ENE 20:25:44 10° NNW
Cosmos 1812 Rocket 4.4 20:19:46 10° NNE 20:23:42 32° ENE 20:27:34 10° SE
Delta 2 Rocket 3.7 20:21:28 10° WSW 20:24:36 32° S 20:27:38 10° ESE
Cosmos 1356 Rocket 3.9 20:22:37 10° NNW 20:26:51 65° W 20:30:59 10° S
Cosmos 1602 Rocket 3.8 20:23:09 10° SSE 20:27:23 51° E 20:31:42 10° NNE
CZ-2C R/B 3.8 20:23:23 10° NNE 20:28:10 80° ESE 20:32:57 10° S
Atlas Centaur 2 3.2 20:27:24 10° SW 20:32:13 30° S 20:38:05 10° ESE
Cosmos 2263 Rocket 2.7 20:27:34 10° NNW 20:33:02 61° WSW 20:38:30 10° S
Nadezhda 1 Rocket 4.5 20:28:19 10° N 20:34:28 46° ENE 20:40:33 10° SSE
Cosmos 2219 Rocket 3.6 20:31:35 10° SE 20:35:09 17° E 20:38:42 10° ENE
Cosmos 2360 Rocket 2.3 20:31:10 10° S 20:36:38 55° ESE 20:42:09 10° NNE
FALCON 9 R/B 2.5 20:38:27 10° WSW 20:39:55 14° SSW 20:41:12 10° SSE
Meteor 2-1 Rocket 4.4 20:34:15 10° N 20:40:03 66° E 20:45:54 10° SSE
IRIS 4.0 20:36:33 10° WSW 20:40:13 66° SSE 20:42:46 10° E
Meteor 2-16 Rocket 4.4 20:34:14 10° S 20:40:18 83° E 20:46:24 10° N
Cosmos 2333 Rocket 3.3 20:40:24 10° SSE 20:44:47 24° ESE 20:49:12 10° NE
Resurs 01 Rocket 1.6 20:46:08 10° SSE 20:50:33 83° ENE 20:54:59 10° N
Cosmos 1818 3.5 20:46:20 10° SSW 20:51:44 78° ESE 20:57:11 10° NE
SL-16 R/B 3.4 20:50:08 10° SW 20:55:33 46° WNW 21:01:01 10° NNE
Cosmos-2242 4.0 20:52:18 10° NNE 20:56:14 32° ENE 20:59:05 16° SE
CZ-2C R/B 3.7 20:51:07 10° N 20:56:18 48° WNW 21:01:20 10° SW
ERS-1 Rocket 4.2 20:56:51 13° ESE 21:00:17 27° ENE 21:04:27 10° N
GEOS 3 Rocket 3.6 21:01:05 10° NE 21:06:29 70° SE 21:11:49 10° SSW
ATLAS 5 CENTAUR R/B 1.5 21:04:29 10° SW 21:08:32 82° NW 21:13:02 10° NNE
Cosmos 2278 Rocket 4.3 21:05:55 10° NNE 21:08:45 14° NE 21:11:35 10° ENE
USA 215 3.3 21:03:41 10° NE 21:10:05 54° SE 21:16:26 10° SSW
USA 245 3.3 21:08:35 22° SE 21:10:24 50° ENE 21:14:12 10° N
Cosmos 1758 Rocket 3.5 21:08:22 10° S 21:12:51 79° E 21:17:22 10° N
Cosmos 1844 Rocket 2.8 21:08:53 10° NNW 21:14:25 61° ENE 21:18:16 20° SE
Cosmos 1400 Rocket 3.1 21:11:42 10° N 21:15:34 49° ENE 21:17:42 23° SE
SPOT 5 3.9 21:13:56 18° ESE 21:16:53 32° ENE 21:21:10 10° N
Meteor 2-10 Rocket 3.7 21:13:39 10° NNW 21:18:46 72° W 21:23:40 12° S
Spot 2 Rocket 3.5 21:16:44 18° SSE 21:20:36 77° ENE 21:25:43 10° N
OAO 3 Rocket 3.9 21:16:59 10° WSW 21:21:32 38° S 21:23:58 23° SE
Landsat 7 3.8 21:21:48 20° SSE 21:25:07 79° ENE 21:29:54 10° N
BREEZE M DEB (TANK) 3.6 21:24:20 10° NW 21:26:37 25° NNE 21:27:39 17° ENE
Cosmos 2181 Rocket 4.4 21:24:32 10° N 21:30:38 48° ENE 21:34:15 23° SE
SPOT 1/Viking Rocket 3.5 21:31:53 23° SSE 21:35:11 81° ENE 21:40:23 10° N
Cosmos 1953 Rocket 3.4 21:33:11 21° S 21:36:00 74° E 21:40:19 10° NNE
Cosmos 1328 4.3 21:37:17 12° SSW 21:40:48 59° W 21:44:44 10° N
SAR-Lupe-2 3.7 21:42:13 10° N 21:45:49 74° WNW 21:47:57 23° SSW
OAO 2 Rocket 3.7 21:41:13 10° WSW 21:46:17 46° S 21:48:29 29° SE
Cosmos 1455 3.8 21:45:30 10° NNW 21:48:57 32° W 21:51:42 14° SSW
Cosmos 1825 Rocket 4.5 21:47:27 10° SSW 21:51:43 47° W 21:56:02 10° N
ATLAS CENTAUR R/B 2.2 21:54:13 10° NNW 21:57:35 33° NE 21:58:26 29° E
Cosmos 1980 4.4 21:56:55 30° SE 21:57:55 32° ESE 22:02:52 10° NE
Alouette 2 Rocket 4.2 21:57:02 10° NNW 22:00:58 57° W 22:03:55 24° S
COSMOS 2428 2.6 21:57:26 12° SSW 22:02:38 88° ESE 22:08:21 10° NNE
Delta 2 Rocket 4.5 22:03:25 10° WSW 22:05:02 22° SW 22:05:02 22° SW
Cosmos 2322 4.5 22:01:02 10° SW 22:06:36 52° WNW 22:12:12 10° NNE
Cosmos 1844 4.0 22:03:04 10° NNW 22:08:45 60° WSW 22:11:25 31° S
Cosmos 1869 4.0 22:05:16 10° N 22:09:01 39° ENE 22:09:22 38° E
NOSS 0 Rocket 4.1 22:07:31 32° SSE 22:10:04 52° ESE 22:16:02 10° NE
CARTOSAT-1 3.8 22:10:04 37° SSW 22:11:35 62° W 22:15:52 10° NNW
Terra 1.7 22:10:34 43° SSE 22:12:06 79° ENE 22:16:52 10° N
Meteor 1-27 4.2 22:09:50 10° N 22:15:37 88° W 22:18:05 37° S
Cosmos 2237 Rocket 2.6 22:14:58 38° SE 22:16:05 43° ESE 22:21:27 10° NE
BREEZE-M DEB (TANK) 3.8 22:14:49 10° WNW 22:18:05 39° SW 22:18:38 37° SSW
Cosmos 2344 3.9 22:16:02 32° SSE 22:18:24 40° ESE 22:25:23 10° NE
Cosmos 2219 Rocket 2.6 22:12:58 10° SW 22:18:30 62° WNW 22:24:04 10° NNE
Cosmos 1538 Rocket 4.4 22:15:17 15° SSW 22:19:46 64° WNW 22:25:05 10° NNE
Atlas Centaur 2 3.3 22:15:15 10° WSW 22:20:50 33° S 22:21:21 32° S
NOSS 3-3 (A) 4.2 22:15:26 10° SW 22:21:10 66° NW 22:27:38 10° NNE
NOSS 3-3 (C) 4.2 22:15:31 10° SW 22:21:16 66° NW 22:27:45 10° NNE
BREEZE-M R/B 4.0 22:11:09 10° WNW 22:21:30 89° NE 22:23:36 40° ESE
DELTA 2 R/B (1) 3.5 22:21:10 10° WSW 22:26:38 58° SSE 22:30:03 23° E
Cosmos 2333 Rocket 3.1 22:23:12 10° SW 22:28:40 48° WNW 22:34:13 10° NNE
Cosmos 1315 Rocket 3.1 22:25:10 10° NNW 22:29:14 61° W 22:29:55 52° SW
Cosmos 2184 Rocket 3.9 22:27:11 36° S 22:29:56 84° E 22:36:15 10° N
Thor Agena Rocket 4.0 22:28:19 10° NNE 22:33:05 39° E 22:33:18 39° ESE
Meteor 2-2 Rocket 4.2 22:28:25 10° N 22:34:15 77° E 22:35:55 48° SSE
ERS-1 Rocket 4.1 22:36:52 26° SW 22:38:54 36° W 22:43:32 10° NNW
Cosmos 2221 2.4 22:34:30 10° N 22:38:54 87° WSW 22:39:20 72° S
BREEZE-M DEB (TANK) 4.2 22:35:43 10° WNW 22:39:22 21° N 22:41:21 11° NE
Cosmos 1892 2.7 22:41:59 71° NE 22:41:59 71° NE 22:45:26 10° N
ATLAS 2AS CENTAUR R/B 3.6 22:35:23 10° NNW 22:42:33 44° NE 22:46:25 24° ESE
EO 1 Del DPAF 4.4 22:42:30 10° NNE 22:44:59 31° ENE 22:44:59 31° ENE
MOS 1-B Rocket 4.5 22:40:54 10° NNE 22:48:13 54° E 22:49:56 43° SE
Cosmos 2112 Rocket 4.0 22:48:24 58° SSE 22:49:09 66° ESE 22:54:28 10° NNE
USA 215 4.2 22:46:46 10° NE 22:53:00 48° NNW 22:59:13 10° WSW
Cosmos 158 Rocket 3.6 22:52:56 70° SSE 22:53:22 78° ESE 22:58:17 10° NNE
Cosmos 2278 Rocket 2.1 22:48:03 10° NNW 22:53:46 82° ENE 22:54:59 57° SE
SPOT 5 4.4 22:53:10 23° SW 22:54:54 29° W 22:59:09 10° NW
Spot 4 4.0 22:59:07 54° E 22:59:32 56° ENE 23:04:13 10° N
SL-16 R/B 3.0 23:00:46 35° E 23:00:46 35° E 23:05:36 10° NE
Cosmos 2058 3.2 23:01:10 59° W 23:01:21 60° W 23:05:28 10° N
Cosmos 1408 3.3 23:03:24 48° N 23:03:24 48° N 23:06:05 10° N
Gblst 52 Del rocket 4.4 22:59:29 10° NW 23:05:23 84° NE 23:07:28 46° ESE
Cosmos 2056 Rocket 4.1 23:01:46 10° N 23:07:00 47° ENE 23:07:58 42° E
Cosmos 2154 Rocket 4.0 23:07:50 45° SSW 23:09:49 75° W 23:16:03 10° N
Nadezhda 3 Rocket 4.0 23:05:55 10° N 23:12:18 83° W 23:13:54 54° S
Cosmos 2341 Rocket 4.0 23:11:47 54° SE 23:12:56 64° E 23:19:05 10° NNE
Cosmos 1076 Rocket 4.0 23:12:54 50° W 23:13:10 51° W 23:17:20 10° N
Cosmos 1680 Rocket 3.9 23:15:57 42° SW 23:17:33 59° WNW 23:22:49 10° NNE
Cosmos 2151 3.2 23:23:52 68° NNE 23:23:52 68° NNE 23:27:38 10° N
USA 267 3.2 23:21:24 47° SE 23:23:32 90° SE 23:30:08 10° NW
SL-8 Rocket 3.9 23:30:59 59° SE 23:31:52 67° E 23:38:00 10° NNE
Cosmos 1825 3.1 23:32:56 46° NNW 23:32:56 46° NNW 23:35:51 10° N
Cosmos 1340 4.4 23:34:23 26° NE 23:34:23 26° NE 23:36:25 10° NNE
BREEZE-M DEB (TANK) 4.0 23:30:30 10° WNW 23:32:45 24° WNW 23:32:45 24° WNW
ALOS 2 2.9 23:35:27 61° NE 23:35:27 61° NE 23:39:26 10° N
COSMOS 2455 4.4 23:30:00 10° N 23:35:09 28° NE 23:38:24 18° E
ATLAS CENTAUR R/B 3.6 23:33:45 10° WNW 23:34:36 13° W 23:34:36 13° W
Meteor 2-12 Rocket 4.5 23:37:27 57° SE 23:38:11 62° E 23:44:14 10° NNE
Cosmos 1933 4.4 23:35:11 10° N 23:38:13 38° NE 23:38:13 38° NE
Cosmos 1151 Rocket 3.7 23:36:24 10° N 23:40:03 48° NE 23:40:03 48° NE
IRIDIUM 103 4.3 23:41:42 67° E 23:41:48 68° E 23:46:59 10° N
Cosmos 44 3.4 23:43:37 61° NNE 23:43:37 61° NNE 23:47:20 10° NNE
Cosmos 2369 Rocket 4.1 23:41:43 10° N 23:45:59 22° NE 23:48:49 15° E
GP-B 3.3 23:44:56 10° N 23:48:50 68° N 23:48:50 68° N
Cosmos 371 Rocket 3.8 23:45:36 10° N 23:50:19 50° ENE 23:50:25 49° ENE
Terra 4.3 23:49:47 10° W 23:50:23 10° W 23:50:58 10° W
